EW8108 Weather Reports


time (UTC)temp
F
wind
direction
speed
knots
gust
knots
rain 1hr
in
rain 24hr
in
rain mn
in
humidity
%
barometer
mb
20260504214826 83 205 0.0 7.0 0.00 0.00 0.00 56 970.9
20260504213851 83 200 0.0 5.2 0.00 0.00 0.00 56 970.8
20260504212910 84 221 0.0 5.2 0.00 0.00 0.00 56 971.0
20260504211859 84 252 0.0 4.3 0.00 0.00 0.00 56 971.2
20260504210851 83 200 0.0 6.1 0.00 0.00 0.00 56 971.4
20260504205842 82 265 0.0 6.1 0.00 0.00 0.00 58 971.5
20260504204859 81 229 0.0 5.2 0.00 0.00 0.00 59 971.8
20260504203919 81 5 0.0 3.5 0.00 0.00 0.00 58 971.9
20260504202919 81 255 0.0 6.1 0.00 0.00 0.00 57 972.0
20260504201900 81 292 0.0 6.1 0.00 0.00 0.00 57 972.3
20260504200825 81 249 0.0 5.2 0.00 0.00 0.00 58 972.6
20260504195801 82 204 0.0 7.0 0.00 0.00 0.00 56 972.6
20260504194810 81 156 0.0 7.0 0.00 0.00 0.00 59 972.8
20260504193823 81 229 0.0 4.3 0.00 0.00 0.00 57 972.9
20260504192840 81 222 0.0 5.2 0.00 0.00 0.00 57 973.0
20260504191843 81 236 0.0 5.2 0.00 0.00 0.00 58 973.1
20260504190834 81 272 0.0 6.1 0.00 0.00 0.00 57 973.4
20260504185805 80 273 0.0 6.1 0.00 0.00 0.00 59 973.6
20260504184816 79 263 0.0 5.2 0.00 0.00 0.00 59 973.5
20260504183834 79 244 0.0 5.2 0.00 0.00 0.00 59 973.7
20260504182836 78 217 0.0 5.2 0.00 0.00 0.00 59 973.8
20260504180703 77 227 0.0 5.2 0.00 0.00 0.00 60 974.3
20260504175653 77 187 0.0 6.1 0.00 0.00 0.00 60 974.3
20260504174620 76 237 0.0 6.1 0.00 0.00 0.00 61 974.4
20260504173631 74 264 0.0 5.2 0.00 0.00 0.00 62 974.5
20260504172655 73 237 0.0 5.2 0.00 0.00 0.00 62 974.8
20260504171707 73 239 0.0 5.2 0.00 0.00 0.00 62 975.1
20260504170643 72 260 0.0 5.2 0.00 0.00 0.00 62 975.4
20260504150438 69 246 0.0 6.1 0.00 0.00 0.00 59 975.9
20260504140326 66 179 0.0 4.3 0.00 0.00 0.00 50 975.9
20260504130157 62 232 0.0 0.9 0.00 0.00 0.00 6 975.9
20260504081633 60 240 0.0 0.0 0.00 0.00 0.00 49 975.9
20260504050644 64 238 0.0 2.6 0.00 0.00 0.00 64 978.1
20260504044449 63 215 0.0 0.0 0.00 0.00 0.00 64 978.2
20260504043420 63 215 0.0 0.0 0.00 0.00 0.00 64 978.3
20260504041210 62 215 0.0 0.0 0.00 0.00 0.00 63 978.3
20260504040142 62 215 0.0 0.0 0.00 0.00 0.00 63 978.4
20260504033938 61 215 0.0 0.0 0.00 0.00 0.00 64 978.2
20260504032943 62 215 0.0 0.0 0.00 0.00 0.00 64 978.2
20260504031923 62 215 0.0 0.0 0.00 0.00 0.00 64 978.2
20260504030925 63 215 0.0 0.0 0.00 0.00 0.00 63 978.2
20260504025937 63 215 0.0 0.0 0.00 0.00 0.00 63 978.4
20260504024949 63 215 0.0 0.0 0.00 0.00 0.00 63 978.3
20260504024006 63 215 0.0 0.0 0.00 0.00 0.00 63 978.4
20260504023005 64 215 0.0 0.0 0.00 0.00 0.00 62 978.2
20260504020918 65 215 0.0 0.0 0.00 0.00 0.00 61 978.2
20260504012503 68 215 0.0 0.0 0.00 0.00 0.00 55 977.7
20260504010302 70 215 0.0 0.0 0.00 0.00 0.00 51 977.7
20260504005251 71 215 0.0 0.0 0.00 0.00 0.00 49 977.7
20260504004228 72 215 0.0 0.0 0.00 0.00 0.00 47 977.6
20260504002052 74 215 0.0 0.0 0.00 0.00 0.00 45 977.8
20260504001019 74 209 0.0 0.0 0.00 0.00 0.00 44 977.9
20260504000034 74 209 0.0 0.0 0.00 0.00 0.00 42 978.1
20260503235036 75 207 0.0 0.0 0.00 0.00 0.00 42 978.3
20260503234045 76 204 0.0 0.0 0.00 0.00 0.00 43 978.2
20260503231918 77 257 0.0 0.0 0.00 0.00 0.00 40 978.4
20260503225800 78 286 0.0 0.0 0.00 0.00 0.00 37 978.1
20260503224754 80 291 0.0 2.6 0.00 0.00 0.00 36 978.4
20260503223817 81 219 0.0 0.9 0.00 0.00 0.00 36 978.3
20260503222758 81 275 0.0 3.5 0.00 0.00 0.00 35 978.7
20260503221814 81 278 0.0 0.9 0.00 0.00 0.00 36 978.7
20260503220836 81 246 0.0 0.9 0.00 0.00 0.00 34 978.8